Tracking 29892 objects as of 21-Nov-2024
HD Live streaming from Space Station
objects crossing your sky now

DMSP 5D-2 F13 DEB

Track DMSP 5D-2 F13 DEB now!
10-day predictions


NORAD ID: 40579
Int'l Code: 1995-015EN
Perigee: 646.7 km
Apogee: 704.3 km
Inclination: 98.5 °
Period: 98.1 minutes
Semi major axis: 7046 km
RCS: Unknown
Launch date: March 24, 1995
Source: United States (US)
Launch site: AIR FORCE WESTERN TEST RANGE (AFWTR)

Note: This is SATELLITE DEBRIS
Your satellite tracking list
Your tracking list is empty




NASA's NSSDC Master Catalog

Two Line Element Set (TLE):
1 40579U 95015EN  24324.10244048  .00031923  00000-0  55210-2 0  9996
2 40579  98.5062  18.4647 0040855 265.6390  94.0145 14.67717394505518
Source of the keplerian elements: AFSPC